[[{"header":{"parameterUnit":"m.s-1","parameterCategory":1,"la1":30.2991,"la2":30.254,"lo1":-89.0895,"lo2":-89.0444,"dy":0.0017,"dx":0.0017,"nx":28,"ny":28,"refTime":"2025-04-23T21:00:00:Z","depth":0,"parameterNumber":2,"parameterNumberName":"U-component_of_WINDS"},"data":[0,0,0,0,0,0,0,0,0,0,0,0,0,0,0,0,0,0,0,0,0,0,0,0,0,0,0,0,0,0,0,0,0,0,0,0,0,0,0,0,0,0,0,0,0,0,0,0,0,0,0,0,0,0,0,0,0,0,-2.2465,-2.2465,0,-2.2456,-2.2455,-2.2455,-2.2419,-2.2418,-2.2417,-2.2417,-2.2408,-2.2409,-2.2409,0,0,0,0,0,0,0,0,0,0,0,0,0,-2.2453,-2.2453,-2.2465,-2.2465,-2.2465,-2.2456,-2.2455,-2.2455,-2.2419,-2.2418,-2.2417,-2.2416,-2.2408,-2.2409,-2.2409,0,0,0,0,0,0,0,0,0,0,0,0,0,-2.2452,-2.2454,-2.2465,-2.2446,-2.2444,-2.2456,-2.2455,-2.2455,-2.2419,-2.2418,-2.2417,-2.2416,-2.2408,-2.2409,-2.241,-2.244,0,0,-2.2412,-2.2412,0,0,0,0,0,0,0,0,-2.2452,-2.2453,-2.2448,-2.2447,-2.2445,-2.2437,-2.2448,-2.245,-2.242,-2.2429,-2.2416,-2.2415,-2.2419,-2.2419,-2.242,-2.2439,-2.2439,-2.2412,-2.2413,-2.2413,-2.2413,0,0,0,0,0,0,0,-2.2453,-2.2453,-2.2461,-2.2448,-2.2446,-2.2438,-2.2436,-2.2448,-2.2431,-2.2428,-2.2425,-2.2424,-2.2418,-2.2419,-2.2419,-2.2439,-2.2412,-2.2413,-2.2413,-2.2414,-2.2482,-2.2483,0,0,0,0,0,0,-2.2455,-2.2453,-2.2462,-2.2461,-2.2446,-2.2439,-2.2437,-2.2441,-2.2431,-2.2428,-2.2425,-2.2423,-2.2418,-2.2418,-2.2419,-2.2452,-2.2413,-2.2414,-2.2414,-2.2481,-2.2482,-2.2484,0,0,0,0,0,0,-2.2455,-2.2456,-2.2462,-2.2456,-2.2456,-2.244,-2.2445,-2.2441,-2.2443,-2.2429,-2.2426,-2.243,-2.2417,-2.2418,-2.2435,-2.2452,-2.2414,-2.2415,-2.2479,-2.2481,-2.2483,-2.2521,0,0,0,0,0,0,-2.2455,-2.2456,-2.2467,-2.2457,-2.2457,-2.2477,-2.2446,-2.2442,-2.2444,-2.244,-2.2432,-2.243,-2.2416,-2.2434,-2.2435,-2.2452,-2.2416,-2.2478,-2.248,-2.2482,-2.2518,-2.2524,-2.2529,0,0,0,0,0,-2.2455,-2.2479,-2.2468,-2.2469,-2.247,-2.2478,-2.2478,-2.2462,-2.2446,-2.2456,-2.2448,-2.243,-2.245,-2.2436,-2.2437,-2.2455,-2.2476,-2.2479,-2.2482,-2.2515,-2.2522,-2.2529,0,0,0,0,0,0,-2.2492,-2.2477,-2.2465,-2.2487,-2.2484,-2.2472,-2.2485,-2.247,-2.2473,-2.2469,-2.2449,-2.2448,-2.2467,-2.2463,-2.2447,-2.2483,-2.246,-2.2464,-2.2485,-2.2491,-2.2497,-2.2497,-2.2416,0,0,0,0,0,-2.2503,-2.251,-2.2497,-2.2517,-2.2517,-2.2502,-2.2505,-2.2492,-2.2489,-2.2488,-2.248,-2.2478,-2.2483,-2.2488,-2.2492,-2.2518,-2.2515,-2.2531,-2.2536,-2.2541,-2.2543,-2.2555,-2.2562,-2.2493,-2.2493,-2.2493,0,0,-2.2525,-2.2518,-2.2524,-2.2525,-2.2521,-2.2529,-2.2501,-2.2511,-2.2517,-2.2489,-2.2504,-2.2499,-2.2495,-2.2516,-2.2525,-2.2513,-2.2562,-2.2545,-2.2548,-2.2548,-2.2559,-2.2566,-2.2571,-2.2496,-2.2495,-2.2495,0,0,-2.257,-2.2566,-2.2581,-2.2578,-2.2573,-2.2563,-2.2567,-2.2558,-2.2553,-2.2567,-2.2546,-2.2554,-2.2564,-2.2562,-2.2562,-2.2607,-2.259,-2.2609,-2.2637,-2.2649,-2.2654,-2.2659,-2.2673,-2.2678,-2.2612,-2.2612,-2.2612,0,-2.2598,-2.2609,-2.2591,-2.2602,-2.2603,-2.2579,-2.2594,-2.2593,-2.259,-2.2591,-2.2578,-2.259,-2.2586,-2.2605,-2.2616,-2.2618,-2.2621,-2.2609,-2.2655,-2.2659,-2.2663,-2.2677,-2.2682,-2.2614,-2.2614,-2.2614,-2.2614,0,-2.2643,-2.2651,-2.2665,-2.2662,-2.2664,-2.2678,-2.2663,-2.2668,-2.2655,-2.2647,-2.2662,-2.2656,-2.2659,-2.2663,-2.2652,-2.2681,-2.2673,-2.2658,-2.2634,-2.2672,-2.2684,-2.2689,-2.2617,-2.2617,-2.2616,-2.2615,0,0,-2.2709,-2.2697,-2.2702,-2.2699,-2.2692,-2.2698,-2.2711,-2.2713,-2.2717,-2.2717,-2.2726,-2.2736,-2.2721,-2.2722,-2.271,-2.2721,-2.2754,-2.2704,-2.2703,-2.2712,-2.2785,-2.2795,-2.2801,-2.2744,-2.2745,-2.2746,-2.2785,0,-2.275,-2.277,-2.2755,-2.2777,-2.2784,-2.2761,-2.2772,-2.2769,-2.2762,-2.2767,-2.2759,-2.2765,-2.2747,-2.2747,-2.2757,-2.2748,-2.2769,-2.2746,-2.2752,-2.2753,-2.2752,-2.2808,-2.2819,-2.2855,-2.279,-2.279,-2.2791,0,-2.28,-2.28,-2.2823,-2.2814,-2.2816,-2.2826,-2.2826,-2.2832,-2.2828,-2.2822,-2.2823,-2.2808,-2.282,-2.2799,-2.2814,-2.2799,-2.2801,-2.2798,-2.2799,-2.2797,-2.2773,-2.2806,-2.2867,-2.2872,-2.2799,-2.2798,-2.2797,0,-2.2843,-2.285,-2.2864,-2.2864,-2.2854,-2.2861,-2.2857,-2.2853,-2.2855,-2.2855,-2.2856,-2.2859,-2.286,-2.2863,-2.2849,-2.2835,-2.2867,-2.2844,-2.2861,-2.2862,-2.2867,-2.2867,-2.2927,-2.2872,-2.2872,-2.2872,-2.2872,0,-2.2889,-2.2904,-2.2884,-2.2892,-2.2908,-2.2891,-2.2907,-2.2901,-2.2897,-2.2904,-2.2886,-2.2893,-2.2876,-2.2882,-2.2872,-2.2886,-2.2887,-2.2882,-2.2879,-2.2882,-2.2883,-2.2882,-2.2878,-2.2873,-2.2873,-2.2873,-2.2873,0,-2.294,-2.2927,-2.2941,-2.293,-2.2928,-2.294,-2.2931,-2.2939,-2.293,-2.294,-2.2941,-2.2928,-2.2934,-2.2921,-2.2926,-2.2919,-2.2938,-2.2932,-2.2939,-2.2936,-2.2953,-2.2951,-2.3014,-2.3021,-2.2963,-2.2964,-2.2964,0,-2.2969,-2.2979,-2.297,-2.2973,-2.297,-2.2976,-2.2977,-2.2962,-2.2964,-2.2961,-2.2969,-2.2973,-2.2975,-2.2985,-2.2976,-2.298,-2.2972,-2.2994,-2.2972,-2.2975,-2.297,-2.2969,-2.2969,-2.2998,-2.2999,-2.2999,-2.3,0,-2.3021,-2.3014,-2.3017,-2.3018,-2.302,-2.302,-2.3019,-2.3023,-2.3006,-2.301,-2.3015,-2.3017,-2.3021,-2.3025,-2.3026,-2.3023,-2.3008,-2.3007,-2.301,-2.3013,-2.3016,-2.3013,-2.2949,-2.3005,-2.3004,-2.3004,-2.3004,-2.3003,-2.306,-2.3068,-2.3062,-2.3066,-2.3063,-2.3063,-2.3069,-2.3061,-2.3065,-2.3066,-2.3058,-2.3064,-2.3061,-2.306,-2.3059,-2.3064,-2.3054,-2.306,-2.3061,-2.3063,-2.3064,-2.3017,-2.3065,-2.3065,-2.3064,-2.3064,-2.3064,0,-2.311,-2.3105,-2.3109,-2.3107,-2.311,-2.3097,-2.3095,-2.3098,-2.3104,-2.3102,-2.3104,-2.311,-2.3114,-2.3105,-2.3108,-2.3114,-2.3107,-2.3115,-2.3113,-2.3113,-2.3074,-2.307,-2.312,-2.312,-2.312,-2.312,-2.312,-2.312,-2.3136,-2.3148,-2.314,-2.3151,-2.3146,-2.3152,-2.3152,-2.3151,-2.3149,-2.3156,-2.3159,-2.3154,-2.3149,-2.3151,-2.3154,-2.3151,-2.3152,-2.3162,-2.3157,-2.3121,-2.3115,-2.311,-2.3106,-2.3163,-2.3163,-2.3195,-2.3195,-2.3195]},{"header":{"parameterUnit":"m.s-1","parameterCategory":1,"la1":30.2991,"la2":30.254,"lo1":-89.0895,"lo2":-89.0444,"dy":0.0017,"dx":0.0017,"nx":28,"ny":28,"refTime":"2025-04-23T21:00:00:Z","depth":0,"parameterNumber":3,"parameterNumberName":"V-component_of_WINDS"},"data":[0,0,0,0,0,0,0,0,0,0,0,0,0,0,0,0,0,0,0,0,0,0,0,0,0,0,0,0,0,0,0,0,0,0,0,0,0,0,0,0,0,0,0,0,0,0,0,0,0,0,0,0,0,0,0,0,0,0,2.2672,2.2672,0,2.2655,2.2654,2.2654,2.2709,2.2711,2.2713,2.2714,2.269,2.2688,2.2686,0,0,0,0,0,0,0,0,0,0,0,0,0,2.2749,2.2747,2.2672,2.2672,2.2671,2.2655,2.2654,2.2654,2.2709,2.2711,2.2713,2.2715,2.2691,2.2688,2.2685,0,0,0,0,0,0,0,0,0,0,0,0,0,2.2721,2.2746,2.2672,2.2697,2.2699,2.2655,2.2654,2.2654,2.2709,2.2711,2.2714,2.2716,2.2691,2.2688,2.2685,2.2613,0,0,2.2675,2.2673,0,0,0,0,0,0,0,0,2.2723,2.2719,2.2694,2.2695,2.2697,2.2687,2.2673,2.264,2.2708,2.2705,2.2714,2.2717,2.2686,2.2684,2.2675,2.2612,2.2611,2.2674,2.2672,2.2671,2.267,0,0,0,0,0,0,0,2.2725,2.272,2.2665,2.2693,2.2695,2.2708,2.2707,2.2667,2.2681,2.2705,2.2709,2.2707,2.2688,2.2678,2.2674,2.2611,2.2675,2.2672,2.2669,2.2668,2.2491,2.2488,0,0,0,0,0,0,2.2724,2.2721,2.2665,2.2664,2.2717,2.2704,2.2703,2.2687,2.2682,2.2684,2.2705,2.2709,2.2682,2.2678,2.2674,2.2591,2.2671,2.2668,2.2666,2.2494,2.249,2.2487,0,0,0,0,0,0,2.2725,2.2719,2.2666,2.2694,2.2688,2.27,2.2682,2.2686,2.2676,2.2682,2.2684,2.2692,2.2684,2.2678,2.2629,2.2591,2.2666,2.2663,2.2497,2.2493,2.2489,2.2423,0,0,0,0,0,0,2.2727,2.2719,2.2692,2.2693,2.2686,2.2622,2.268,2.2684,2.2671,2.2677,2.267,2.2671,2.2686,2.2634,2.2626,2.2587,2.2661,2.25,2.2495,2.249,2.2429,2.2417,2.2408,0,0,0,0,0,2.273,2.2673,2.2691,2.2684,2.2654,2.262,2.2616,2.2636,2.2667,2.264,2.2645,2.2671,2.2596,2.2628,2.2619,2.258,2.2503,2.2496,2.2491,2.2433,2.242,2.2408,0,0,0,0,0,0,2.2664,2.2673,2.2693,2.2635,2.2627,2.263,2.2596,2.262,2.2601,2.2607,2.263,2.2628,2.2575,2.2572,2.2607,2.2511,2.2555,2.2547,2.2514,2.2501,2.2491,2.2492,2.2658,0,0,0,0,0,2.2644,2.2617,2.2626,2.2573,2.2569,2.2583,2.2569,2.2585,2.2577,2.2573,2.2573,2.2562,2.2537,2.2519,2.2495,2.2429,2.2429,2.2398,2.2387,2.2379,2.2371,2.2337,2.2323,2.2467,2.2467,2.2468,0,0,2.26,2.2601,2.2582,2.256,2.2556,2.2527,2.258,2.2546,2.2524,2.2567,2.2521,2.2521,2.2511,2.2453,2.2428,2.2449,2.2331,2.2371,2.2364,2.2361,2.2329,2.2315,2.2303,2.2463,2.2464,2.2465,0,0,2.2504,2.2503,2.246,2.2456,2.245,2.246,2.245,2.245,2.2452,2.2408,2.2439,2.2413,2.2368,2.236,2.235,2.2255,2.2279,2.2247,2.2191,2.2157,2.2146,2.2136,2.2102,2.209,2.2239,2.2239,2.2239,0,2.2449,2.2409,2.2434,2.24,2.2389,2.243,2.2386,2.238,2.2365,2.2356,2.2382,2.2328,2.2323,2.2265,2.2242,2.2233,2.2221,2.2247,2.2146,2.2136,2.2127,2.2095,2.2083,2.2235,2.2236,2.2236,2.2237,0,2.2342,2.2313,2.2279,2.2267,2.2253,2.2213,2.2232,2.2214,2.2233,2.224,2.2194,2.2191,2.2169,2.2156,2.2172,2.21,2.2114,2.2142,2.2187,2.2109,2.208,2.2068,2.223,2.2231,2.2232,2.2233,0,0,2.2202,2.2208,2.2195,2.2191,2.2189,2.2166,2.2129,2.211,2.2094,2.2083,2.2052,2.2015,2.2042,2.2031,2.2046,2.2017,2.1943,2.2049,2.2049,2.2029,2.1864,2.1843,2.1828,2.196,2.1958,2.1956,2.1865,0,2.2109,2.2048,2.2071,2.2007,2.1981,2.2021,2.1989,2.1983,2.199,2.1968,2.1975,2.1948,2.1986,2.198,2.1953,2.1958,2.191,2.1965,2.193,2.1929,2.1931,2.1813,2.1789,2.1704,2.1854,2.1852,2.185,0,2.1991,2.1979,2.1913,2.1918,2.1908,2.1879,2.1864,2.1843,2.1838,2.1845,2.1834,2.1857,2.182,2.1866,2.1815,2.1852,2.1839,2.184,2.1837,2.1834,2.1884,2.1805,2.1677,2.1664,2.1832,2.1834,2.1835,0,2.1896,2.1863,2.182,2.1816,2.182,2.1798,2.1799,2.1797,2.1784,2.1771,2.1763,2.1744,2.1734,2.1719,2.1736,2.1767,2.1683,2.173,2.1687,2.1686,2.1666,2.1666,2.1532,2.1659,2.1659,2.1659,2.1659,0,2.1789,2.1747,2.1778,2.1751,2.1706,2.1733,2.1687,2.1692,2.169,2.1665,2.1697,2.1672,2.1697,2.1674,2.1687,2.1643,2.1638,2.1642,2.1646,2.1639,2.1638,2.163,2.1636,2.1656,2.1656,2.1657,2.1658,0,2.1674,2.1693,2.1649,2.1658,2.1659,2.1626,2.1633,2.1608,2.1619,2.1586,2.158,2.1595,2.157,2.1587,2.156,2.1569,2.1512,2.1525,2.1515,2.1518,2.1474,2.1478,2.1329,2.1311,2.1449,2.1448,2.1447,0,2.1604,2.1573,2.158,2.1567,2.1566,2.1543,2.1532,2.1558,2.1544,2.1538,2.1514,2.1492,2.1476,2.1434,2.1442,2.1423,2.1434,2.1384,2.1431,2.1426,2.1433,2.1435,2.1432,2.1374,2.1372,2.1371,2.137,0,2.1477,2.1489,2.1473,2.146,2.1446,2.1436,2.1429,2.1416,2.1442,2.1425,2.1402,2.139,2.1365,2.1343,2.1327,2.1326,2.1352,2.1355,2.1344,2.1336,2.1331,2.1333,2.1488,2.1358,2.1359,2.136,2.136,2.1361,2.1383,2.1358,2.136,2.134,2.1339,2.1332,2.131,2.132,2.1301,2.1285,2.1301,2.1272,2.127,2.1252,2.1248,2.1226,2.1246,2.123,2.1226,2.1221,2.1215,2.1336,2.1223,2.1223,2.1223,2.1224,2.1224,0,2.1258,2.1262,2.1244,2.1235,2.122,2.1249,2.1243,2.1228,2.1203,2.12,2.1185,2.1158,2.1138,2.1146,2.1128,2.1108,2.1119,2.1102,2.1103,2.1103,2.1198,2.1209,2.1094,2.1094,2.1094,2.1094,2.1094,2.1094,2.1191,2.1152,2.1164,2.1124,2.1128,2.1102,2.1097,2.1091,2.1088,2.1058,2.1042,2.1049,2.105,2.1033,2.1015,2.1018,2.101,2.0988,2.0995,2.1083,2.1096,2.1108,2.1119,2.0986,2.0986,2.0902,2.0901,2.09]}]]